This is the latest recevied weather packets stored in our database for station/object KI4FRU. If no packets are shown the sender has not sent any weather packets the latest 10 day(s).
| Time | Temp. | Humidity | Pressure | Rain* | Wind** | Luminosity | Snow |
|---|---|---|---|---|---|---|---|
| 1778009331 | 27.78° C | 45% | 1053.3 hPa | 0 mm | - | 597 W/m² | - |
| 1778009029 | 27.78° C | 47% | 1053.6 hPa | 0 mm | - | 423 W/m² | - |
| 1778008726 | 28.33° C | 40% | 1053.3 hPa | 0 mm | - | 610 W/m² | - |
| 1778008424 | 28.33° C | 43% | 1053.5 hPa | 0 mm | - | 595 W/m² | - |
| 1778008121 | 28.33° C | 43% | 1053.8 hPa | 0 mm | - | 653 W/m² | - |
| 1778007816 | 28.33° C | 45% | 1054 hPa | 0 mm | - | 469 W/m² | - |
| 1778007512 | 28.89° C | 45% | 1053.8 hPa | 0 mm | - | 630 W/m² | - |
| 1778007209 | 27.22° C | 47% | 1054.1 hPa | 0 mm | - | 695 W/m² | - |
| 1778006905 | 27.22° C | 44% | 1054.3 hPa | 0 mm | - | 537 W/m² | - |
| 1778006602 | 27.78° C | 44% | 1054.2 hPa | 0 mm | - | 683 W/m² | - |
| 1778006299 | 28.89° C | 47% | 1054.2 hPa | 0 mm | - | 100 W/m² | - |
| 1778005996 | 28.89° C | 46% | 1054.1 hPa | 0 mm | - | 150 W/m² | - |
| 1778005693 | 27.22° C | 48% | 1054.1 hPa | 0 mm | - | 414 W/m² | - |
| 1778005390 | 26.67° C | 46% | 1054.5 hPa | 0 mm | - | 516 W/m² | - |
| 1778005086 | 25.56° C | 49% | 1054.6 hPa | 0 mm | - | 384 W/m² | - |
| 1778004784 | 27.22° C | 46% | 1054.3 hPa | 0 mm | - | 298 W/m² | - |
| 1778004480 | 27.78° C | 45% | 1054.7 hPa | 0 mm | - | 550 W/m² | - |
| 1778004176 | 27.78° C | 48% | 1054.7 hPa | 0 mm | - | 242 W/m² | - |
| 1778003873 | 28.33° C | 48% | 1054.7 hPa | 0 mm | - | 134 W/m² | - |
| 1778003570 | 28.89° C | 44% | 1054.6 hPa | 0 mm | - | 142 W/m² | - |
| 1778003266 | 28.33° C | 46% | 1054.6 hPa | 0 mm | - | 145 W/m² | - |
| 1778002963 | 27.78° C | 48% | 1054.9 hPa | 0 mm | - | 734 W/m² | - |
| 1778002659 | 26.67° C | 47% | 1054.9 hPa | 0 mm | - | 449 W/m² | - |
| 1778002356 | 26.11° C | 47% | 1054.9 hPa | 0 mm | - | 272 W/m² | - |
| 1778002053 | 26.11° C | 50% | 1054.8 hPa | 0 mm | - | 389 W/m² | - |
* Rain latest hour (hover to see other rain measurements)
** Current wind speed in m/s (hover to see current wind gust speed)